Time,TemperatureF,DewpointF,PressureIn,WindDirection,WindDirectionDegrees,WindSpeedMPH,WindSpeedGustMPH,Humidity,HourlyPrecipIn,Conditions,Clouds,dailyrainin,SoftwareType,DateUTC
2013-02-21 00:02:00,43.0,38.0,30.06,South,172,0.0,-999.0,83,-99.99,,,-99.99,,2013-02-21 05:02:00,
2013-02-21 00:12:00,43.0,38.0,30.06,South,172,0.0,-999.0,83,-99.99,,,-99.99,,2013-02-21 05:12:00,
2013-02-21 00:22:00,42.0,38.0,30.07,South,172,0.0,-999.0,86,-99.99,,,-99.99,,2013-02-21 05:22:00,
2013-02-21 00:35:00,41.0,37.0,30.08,South,172,0.0,-999.0,86,-99.99,,,-99.99,,2013-02-21 05:35:00,
2013-02-21 00:44:00,41.0,37.0,30.08,South,172,0.0,-999.0,86,-99.99,,,-99.99,,2013-02-21 05:44:00,
2013-02-21 01:00:00,41.0,39.0,30.07,South,172,0.0,-999.0,94,-99.99,,,-99.99,,2013-02-21 06:00:00,
2013-02-21 01:11:00,40.0,37.0,30.07,South,172,0.0,-999.0,90,-99.99,,,-99.99,,2013-02-21 06:11:00,
2013-02-21 01:21:00,40.0,37.0,30.07,South,172,0.0,-999.0,90,-99.99,,,-99.99,,2013-02-21 06:21:00,
2013-02-21 01:31:00,40.0,38.0,30.07,South,172,0.0,-999.0,91,-99.99,,,-99.99,,2013-02-21 06:31:00,
2013-02-21 01:41:00,39.0,37.0,30.08,South,172,0.0,-999.0,91,-99.99,,,-99.99,,2013-02-21 06:41:00,
2013-02-21 01:51:00,39.0,37.0,30.08,South,172,0.0,-999.0,91,-99.99,,,-99.99,,2013-02-21 06:51:00,
2013-02-21 02:01:00,39.0,37.0,30.07,South,172,0.0,-999.0,92,-99.99,,,-99.99,,2013-02-21 07:01:00,
2013-02-21 02:11:00,39.0,37.0,30.07,South,172,0.0,-999.0,92,-99.99,,,-99.99,,2013-02-21 07:11:00,
2013-02-21 02:21:00,39.0,37.0,30.07,South,172,0.0,-999.0,92,-99.99,,,-99.99,,2013-02-21 07:21:00,
2013-02-21 02:32:00,38.0,36.0,30.07,South,172,0.0,-999.0,92,-99.99,,,-99.99,,2013-02-21 07:32:00,
2013-02-21 02:42:00,38.0,36.0,30.08,South,172,0.0,-999.0,93,-99.99,,,-99.99,,2013-02-21 07:42:00,
2013-02-21 02:52:00,38.0,36.0,30.08,South,172,0.0,-999.0,93,-99.99,,,-99.99,,2013-02-21 07:52:00,
2013-02-21 03:01:00,37.0,35.0,30.07,South,172,0.0,-999.0,93,-99.99,,,-99.99,,2013-02-21 08:01:00,
2013-02-21 03:11:00,37.0,35.0,30.06,South,172,0.0,-999.0,93,-99.99,,,-99.99,,2013-02-21 08:11:00,
2013-02-21 03:21:00,37.0,35.0,30.06,South,172,0.0,-999.0,93,-99.99,,,-99.99,,2013-02-21 08:21:00,
2013-02-21 03:32:00,37.0,35.0,30.06,South,172,0.0,-999.0,94,-99.99,,,-99.99,,2013-02-21 08:32:00,
2013-02-21 03:42:00,37.0,35.0,30.06,South,172,0.0,-999.0,94,-99.99,,,-99.99,,2013-02-21 08:42:00,
2013-02-21 03:52:00,37.0,35.0,30.06,South,172,0.0,-999.0,94,-99.99,,,-99.99,,2013-02-21 08:52:00,
2013-02-21 04:01:00,37.0,35.0,30.06,South,172,0.0,-999.0,94,-99.99,,,-99.99,,2013-02-21 09:01:00,
2013-02-21 04:11:00,37.0,35.0,30.06,South,172,0.0,-999.0,94,-99.99,,,-99.99,,2013-02-21 09:11:00,
2013-02-21 04:22:00,36.0,34.0,30.06,South,172,0.0,-999.0,94,-99.99,,,-99.99,,2013-02-21 09:22:00,
2013-02-21 04:32:00,36.0,34.0,30.06,South,172,0.0,-999.0,94,-99.99,,,-99.99,,2013-02-21 09:32:00,
2013-02-21 04:41:00,36.0,35.0,30.06,South,172,0.0,-999.0,95,-99.99,,,-99.99,,2013-02-21 09:41:00,
2013-02-21 04:52:00,36.0,35.0,30.06,South,172,0.0,-999.0,95,-99.99,,,-99.99,,2013-02-21 09:52:00,
2013-02-21 05:01:00,36.0,35.0,30.06,South,172,0.0,-999.0,95,-99.99,,,-99.99,,2013-02-21 10:01:00,
2013-02-21 05:11:00,36.0,35.0,30.06,South,172,0.0,-999.0,95,-99.99,,,-99.99,,2013-02-21 10:11:00,
2013-02-21 05:21:00,35.0,34.0,30.07,South,172,0.0,-999.0,95,-99.99,,,-99.99,,2013-02-21 10:21:00,
2013-02-21 05:31:00,35.0,34.0,30.06,South,172,0.0,-999.0,95,-99.99,,,-99.99,,2013-02-21 10:31:00,
2013-02-21 05:41:00,35.0,34.0,30.06,South,172,0.0,-999.0,95,-99.99,,,-99.99,,2013-02-21 10:41:00,
2013-02-21 05:51:00,35.0,34.0,30.07,South,172,0.0,-999.0,95,-99.99,,,-99.99,,2013-02-21 10:51:00,
2013-02-21 06:01:00,35.0,34.0,30.07,South,172,0.0,-999.0,95,-99.99,,,-99.99,,2013-02-21 11:01:00,
2013-02-21 06:11:00,35.0,34.0,30.07,South,172,0.0,-999.0,95,-99.99,,,-99.99,,2013-02-21 11:11:00,
2013-02-21 06:21:00,35.0,34.0,30.08,South,172,0.0,-999.0,95,-99.99,,,-99.99,,2013-02-21 11:21:00,
2013-02-21 06:31:00,35.0,34.0,30.08,South,172,0.0,-999.0,95,-99.99,,,-99.99,,2013-02-21 11:31:00,
2013-02-21 06:41:00,35.0,34.0,30.08,South,172,0.0,-999.0,95,-99.99,,,-99.99,,2013-02-21 11:41:00,
2013-02-21 06:52:00,34.0,33.0,30.08,South,172,0.0,-999.0,95,-99.99,,,-99.99,,2013-02-21 11:52:00,
2013-02-21 07:01:00,34.0,33.0,30.09,South,172,0.0,-999.0,95,-99.99,,,-99.99,,2013-02-21 12:01:00,
2013-02-21 07:11:00,34.0,33.0,30.09,South,172,0.0,-999.0,95,-99.99,,,-99.99,,2013-02-21 12:11:00,
2013-02-21 07:21:00,34.0,33.0,30.09,South,172,0.0,-999.0,95,-99.99,,,-99.99,,2013-02-21 12:21:00,
2013-02-21 07:32:00,34.0,33.0,30.09,South,172,0.0,-999.0,96,-99.99,,,-99.99,,2013-02-21 12:32:00,
2013-02-21 07:42:00,35.0,34.0,30.10,South,172,0.0,-999.0,96,-99.99,,,-99.99,,2013-02-21 12:42:00,
2013-02-21 07:53:00,35.0,34.0,30.10,South,172,0.0,-999.0,96,-99.99,,,-99.99,,2013-02-21 12:53:00,
2013-02-21 08:02:00,35.0,34.0,30.11,South,172,0.0,-999.0,96,-99.99,,,-99.99,,2013-02-21 13:02:00,
2013-02-21 08:12:00,35.0,34.0,30.11,South,172,0.0,-999.0,96,-99.99,,,-99.99,,2013-02-21 13:12:00,
2013-02-21 08:22:00,36.0,35.0,30.12,South,172,0.0,-999.0,96,-99.99,,,-99.99,,2013-02-21 13:22:00,
2013-02-21 08:32:00,38.0,37.0,30.12,SSE,167,0.0,-999.0,96,-99.99,,,-99.99,,2013-02-21 13:32:00,
2013-02-21 08:42:00,42.0,41.0,30.14,SE,146,0.0,-999.0,96,-99.99,,,-99.99,,2013-02-21 13:42:00,
2013-02-21 08:51:00,42.0,41.0,30.14,SE,146,0.0,-999.0,96,-99.99,,,-99.99,,2013-02-21 13:51:00,
2013-02-21 09:02:00,43.0,41.0,30.13,SSE,156,0.0,-999.0,92,-99.99,,,-99.99,,2013-02-21 14:02:00,
2013-02-21 09:11:00,43.0,41.0,30.13,SSE,156,0.0,-999.0,92,-99.99,,,-99.99,,2013-02-21 14:11:00,
2013-02-21 09:22:00,44.0,40.0,30.14,NNW,329,0.0,-999.0,87,-99.99,,,-99.99,,2013-02-21 14:22:00,
2013-02-21 09:32:00,46.0,40.0,30.14,NE,53,0.0,-999.0,79,-99.99,,,-99.99,,2013-02-21 14:32:00,
2013-02-21 09:42:00,48.0,40.0,30.14,NNW,331,0.0,-999.0,74,-99.99,,,-99.99,,2013-02-21 14:42:00,
2013-02-21 09:52:00,48.0,40.0,30.14,NNW,331,0.0,-999.0,74,-99.99,,,-99.99,,2013-02-21 14:52:00,
2013-02-21 10:02:00,48.0,40.0,30.14,North,355,0.0,-999.0,73,-99.99,,,-99.99,,2013-02-21 15:02:00,
2013-02-21 10:12:00,48.0,40.0,30.14,North,355,0.0,-999.0,73,-99.99,,,-99.99,,2013-02-21 15:12:00,
2013-02-21 10:21:00,50.0,39.0,30.14,NW,313,0.0,-999.0,67,-99.99,,,-99.99,,2013-02-21 15:21:00,
2013-02-21 10:32:00,51.0,40.0,30.15,NNW,327,0.0,-999.0,67,-99.99,,,-99.99,,2013-02-21 15:32:00,
2013-02-21 10:42:00,51.0,40.0,30.15,NNW,327,0.0,-999.0,67,-99.99,,,-99.99,,2013-02-21 15:42:00,
2013-02-21 10:52:00,54.0,41.0,30.14,SW,232,0.0,-999.0,61,-99.99,,,-99.99,,2013-02-21 15:52:00,
2013-02-21 11:01:00,55.0,41.0,30.14,WSW,258,0.0,-999.0,60,-99.99,,,-99.99,,2013-02-21 16:01:00,
2013-02-21 11:12:00,58.0,43.0,30.14,West,260,0.0,-999.0,57,-99.99,,,-99.99,,2013-02-21 16:12:00,
2013-02-21 11:22:00,58.0,43.0,30.14,West,260,0.0,-999.0,57,-99.99,,,-99.99,,2013-02-21 16:22:00,
2013-02-21 11:32:00,58.0,41.0,30.14,SE,141,1.0,-999.0,54,-99.99,,,-99.99,,2013-02-21 16:32:00,
2013-02-21 11:42:00,59.0,41.0,30.14,NNW,331,0.0,-999.0,52,-99.99,,,-99.99,,2013-02-21 16:42:00,
2013-02-21 11:52:00,59.0,41.0,30.14,NNW,331,0.0,-999.0,52,-99.99,,,-99.99,,2013-02-21 16:52:00,
2013-02-21 12:01:00,60.0,41.0,30.14,NW,319,0.0,-999.0,50,-99.99,,,-99.99,,2013-02-21 17:01:00,
2013-02-21 12:11:00,61.0,42.0,30.13,South,169,0.0,-999.0,49,-99.99,,,-99.99,,2013-02-21 17:11:00,
2013-02-21 12:21:00,61.0,42.0,30.13,South,169,0.0,-999.0,49,-99.99,,,-99.99,,2013-02-21 17:21:00,
2013-02-21 12:32:00,61.0,41.0,30.12,SSE,155,0.0,-999.0,48,-99.99,,,-99.99,,2013-02-21 17:32:00,
2013-02-21 12:42:00,61.0,41.0,30.12,SSE,155,0.0,-999.0,48,-99.99,,,-99.99,,2013-02-21 17:42:00,
2013-02-21 12:52:00,62.0,41.0,30.12,ESE,105,0.0,-999.0,46,-99.99,,,-99.99,,2013-02-21 17:52:00,
2013-02-21 13:02:00,62.0,42.0,30.11,ESE,106,0.0,-999.0,47,-99.99,,,-99.99,,2013-02-21 18:02:00,
2013-02-21 13:12:00,62.0,42.0,30.11,ESE,106,0.0,-999.0,47,-99.99,,,-99.99,,2013-02-21 18:12:00,
2013-02-21 13:22:00,63.0,41.0,30.09,SSE,153,0.0,-999.0,45,-99.99,,,-99.99,,2013-02-21 18:22:00,
2013-02-21 13:32:00,64.0,43.0,30.09,NW,310,1.0,-999.0,47,-99.99,,,-99.99,,2013-02-21 18:32:00,
2013-02-21 13:42:00,64.0,43.0,30.09,NW,310,1.0,-999.0,47,-99.99,,,-99.99,,2013-02-21 18:42:00,
2013-02-21 13:52:00,64.0,43.0,30.08,WNW,296,1.0,-999.0,47,-99.99,,,-99.99,,2013-02-21 18:52:00,
2013-02-21 14:01:00,64.0,41.0,30.07,West,275,1.0,-999.0,43,-99.99,,,-99.99,,2013-02-21 19:01:00,
2013-02-21 14:12:00,64.0,41.0,30.07,West,275,1.0,-999.0,43,-99.99,,,-99.99,,2013-02-21 19:12:00,
2013-02-21 14:21:00,65.0,44.0,30.06,NW,326,1.0,-999.0,46,-99.99,,,-99.99,,2013-02-21 19:21:00,
2013-02-21 14:32:00,66.0,43.0,30.06,NE,44,1.0,-999.0,43,-99.99,,,-99.99,,2013-02-21 19:32:00,
2013-02-21 14:42:00,66.0,43.0,30.06,NE,44,1.0,-999.0,43,-99.99,,,-99.99,,2013-02-21 19:42:00,
2013-02-21 14:52:00,66.0,43.0,30.04,North,5,0.0,-999.0,44,-99.99,,,-99.99,,2013-02-21 19:52:00,
2013-02-21 15:01:00,68.0,44.0,30.04,ESE,110,1.0,-999.0,42,-99.99,,,-99.99,,2013-02-21 20:01:00,
2013-02-21 15:11:00,68.0,45.0,30.03,SSE,164,1.0,-999.0,43,-99.99,,,-99.99,,2013-02-21 20:11:00,
2013-02-21 15:21:00,68.0,45.0,30.03,SSE,164,1.0,-999.0,43,-99.99,,,-99.99,,2013-02-21 20:21:00,
2013-02-21 15:32:00,67.0,46.0,30.03,SSE,157,2.0,-999.0,46,-99.99,,,-99.99,,2013-02-21 20:32:00,
2013-02-21 15:42:00,67.0,46.0,30.03,SSE,157,2.0,-999.0,46,-99.99,,,-99.99,,2013-02-21 20:42:00,
2013-02-21 15:53:00,66.0,47.0,30.03,South,178,3.0,-999.0,50,-99.99,,,-99.99,,2013-02-21 20:53:00,
2013-02-21 16:02:00,65.0,46.0,30.03,SE,144,2.0,-999.0,50,-99.99,,,-99.99,,2013-02-21 21:02:00,
2013-02-21 16:12:00,64.0,47.0,30.03,South,178,2.0,-999.0,53,-99.99,,,-99.99,,2013-02-21 21:12:00,
2013-02-21 16:22:00,64.0,47.0,30.03,South,178,2.0,-999.0,53,-99.99,,,-99.99,,2013-02-21 21:22:00,
2013-02-21 16:32:00,63.0,47.0,30.03,SE,146,2.0,-999.0,55,-99.99,,,-99.99,,2013-02-21 21:32:00,
2013-02-21 16:42:00,62.0,46.0,30.04,SE,140,1.0,-999.0,56,-99.99,,,-99.99,,2013-02-21 21:42:00,
2013-02-21 16:52:00,62.0,46.0,30.04,SE,140,1.0,-999.0,56,-99.99,,,-99.99,,2013-02-21 21:52:00,
2013-02-21 17:01:00,62.0,47.0,30.03,SSE,156,1.0,-999.0,57,-99.99,,,-99.99,,2013-02-21 22:01:00,
2013-02-21 17:11:00,62.0,47.0,30.03,SSE,156,1.0,-999.0,57,-99.99,,,-99.99,,2013-02-21 22:11:00,
2013-02-21 17:21:00,61.0,47.0,30.04,ESE,115,1.0,-999.0,59,-99.99,,,-99.99,,2013-02-21 22:21:00,
2013-02-21 17:32:00,60.0,46.0,30.04,SE,145,1.0,-999.0,59,-99.99,,,-99.99,,2013-02-21 22:32:00,
2013-02-21 17:42:00,59.0,46.0,30.05,SSE,155,0.0,-999.0,61,-99.99,,,-99.99,,2013-02-21 22:42:00,
2013-02-21 17:52:00,59.0,46.0,30.05,SSE,155,0.0,-999.0,61,-99.99,,,-99.99,,2013-02-21 22:52:00,
2013-02-21 18:01:00,59.0,46.0,30.05,SSE,157,1.0,-999.0,63,-99.99,,,-99.99,,2013-02-21 23:01:00,
2013-02-21 18:11:00,59.0,46.0,30.05,SSE,157,1.0,-999.0,63,-99.99,,,-99.99,,2013-02-21 23:11:00,
2013-02-21 18:21:00,57.0,45.0,30.05,South,182,1.0,-999.0,65,-99.99,,,-99.99,,2013-02-21 23:21:00,
2013-02-21 18:32:00,56.0,45.0,30.06,South,184,0.0,-999.0,67,-99.99,,,-99.99,,2013-02-21 23:32:00,
2013-02-21 18:42:00,56.0,45.0,30.06,South,184,0.0,-999.0,67,-99.99,,,-99.99,,2013-02-21 23:42:00,
2013-02-21 18:52:00,55.0,45.0,30.06,South,186,0.0,-999.0,69,-99.99,,,-99.99,,2013-02-21 23:52:00,
2013-02-21 19:01:00,54.0,44.0,30.06,South,183,0.0,-999.0,70,-99.99,,,-99.99,,2013-02-22 00:01:00,
2013-02-21 19:11:00,54.0,44.0,30.06,South,183,0.0,-999.0,70,-99.99,,,-99.99,,2013-02-22 00:11:00,
2013-02-21 19:22:00,53.0,44.0,30.06,South,183,0.0,-999.0,72,-99.99,,,-99.99,,2013-02-22 00:22:00,
2013-02-21 19:32:00,53.0,45.0,30.07,South,183,0.0,-999.0,74,-99.99,,,-99.99,,2013-02-22 00:32:00,
2013-02-21 19:42:00,53.0,45.0,30.07,South,183,0.0,-999.0,74,-99.99,,,-99.99,,2013-02-22 00:42:00,
2013-02-21 19:51:00,52.0,45.0,30.06,South,183,0.0,-999.0,76,-99.99,,,-99.99,,2013-02-22 00:51:00,
2013-02-21 20:01:00,52.0,45.0,30.06,South,183,0.0,-999.0,77,-99.99,,,-99.99,,2013-02-22 01:01:00,
2013-02-21 20:11:00,52.0,45.0,30.06,South,183,0.0,-999.0,77,-99.99,,,-99.99,,2013-02-22 01:11:00,
2013-02-21 20:22:00,51.0,44.0,30.08,South,183,0.0,-999.0,78,-99.99,,,-99.99,,2013-02-22 01:22:00,
2013-02-21 20:32:00,51.0,45.0,30.08,South,183,0.0,-999.0,79,-99.99,,,-99.99,,2013-02-22 01:32:00,
2013-02-21 20:42:00,51.0,45.0,30.08,South,183,0.0,-999.0,79,-99.99,,,-99.99,,2013-02-22 01:42:00,
2013-02-21 20:52:00,51.0,45.0,30.08,South,183,0.0,-999.0,81,-99.99,,,-99.99,,2013-02-22 01:52:00,
2013-02-21 21:02:00,50.0,45.0,30.08,South,183,0.0,-999.0,82,-99.99,,,-99.99,,2013-02-22 02:02:00,
2013-02-21 21:11:00,50.0,45.0,30.09,South,183,0.0,-999.0,84,-99.99,,,-99.99,,2013-02-22 02:11:00,
2013-02-21 21:21:00,50.0,45.0,30.09,South,183,0.0,-999.0,84,-99.99,,,-99.99,,2013-02-22 02:21:00,
2013-02-21 21:32:00,50.0,45.0,30.09,South,183,0.0,-999.0,84,-99.99,,,-99.99,,2013-02-22 02:32:00,
2013-02-21 21:42:00,49.0,45.0,30.09,South,183,0.0,-999.0,86,-99.99,,,-99.99,,2013-02-22 02:42:00,
2013-02-21 21:52:00,49.0,45.0,30.09,South,183,0.0,-999.0,86,-99.99,,,-99.99,,2013-02-22 02:52:00,
2013-02-21 22:01:00,49.0,45.0,30.09,South,183,0.0,-999.0,86,-99.99,,,-99.99,,2013-02-22 03:01:00,
2013-02-21 22:11:00,49.0,45.0,30.09,South,183,0.0,-999.0,87,-99.99,,,-99.99,,2013-02-22 03:11:00,
2013-02-21 22:21:00,49.0,45.0,30.09,South,183,0.0,-999.0,87,-99.99,,,-99.99,,2013-02-22 03:21:00,
2013-02-21 22:32:00,48.0,45.0,30.10,South,183,0.0,-999.0,88,-99.99,,,-99.99,,2013-02-22 03:32:00,
2013-02-21 22:42:00,48.0,45.0,30.10,South,183,0.0,-999.0,88,-99.99,,,-99.99,,2013-02-22 03:42:00,
2013-02-21 22:52:00,48.0,45.0,30.11,South,183,0.0,-999.0,88,-99.99,,,-99.99,,2013-02-22 03:52:00,
2013-02-21 23:02:00,48.0,45.0,30.11,South,183,0.0,-999.0,89,-99.99,,,-99.99,,2013-02-22 04:02:00,
2013-02-21 23:11:00,48.0,45.0,30.11,South,183,0.0,-999.0,90,-99.99,,,-99.99,,2013-02-22 04:11:00,
2013-02-21 23:21:00,48.0,45.0,30.11,South,183,0.0,-999.0,90,-99.99,,,-99.99,,2013-02-22 04:21:00,
2013-02-21 23:32:00,48.0,45.0,30.11,South,183,0.0,-999.0,90,-99.99,,,-99.99,,2013-02-22 04:32:00,
2013-02-21 23:42:00,48.0,45.0,30.11,South,186,0.0,-999.0,90,-99.99,,,-99.99,,2013-02-22 04:42:00,
2013-02-21 23:52:00,48.0,45.0,30.11,South,186,0.0,-999.0,90,-99.99,,,-99.99,,2013-02-22 04:52:00,